Location: Unspecified
(0.0000°N, 0.0000°E)
Time: 14:47:01
(UTC+00:00)

Vanguard 2 Rocket - All Passes

Search period start: 27 July 2017 00:00
Search period end: 06 August 2017 00:00
Orbit: 553 x 3329 km, 32.9° (Epoch: 26 July)

Date Brightness Start Highest point End Pass type
(mag) Time Alt. Az. Time Alt. Az. Time Alt. Az.
27 Jul - 08:24:36 10° SW 08:30:22 51° SE 08:40:21 10° ENE daylight
27 Jul - 10:37:12 10° W 10:45:13 45° NNW 10:59:03 10° NE daylight
27 Jul - 12:54:53 10° WNW 13:04:32 22° NNW 13:17:23 10° NNE daylight
27 Jul - 15:16:56 10° NNW 15:28:28 18° N 15:40:40 10° NE daylight
27 Jul - 17:36:13 10° NNW 17:52:34 29° NNE 18:05:49 10° ENE daylight
27 Jul - 19:54:15 10° NW 20:12:37 62° NNE 20:23:45 10° ESE visible
27 Jul - 22:14:41 10° WNW 22:28:24 48° SW 22:36:20 10° SSE visible
28 Jul - 07:26:46 10° SSW 07:31:13 27° SE 07:37:48 10° E daylight
28 Jul - 09:37:52 10° WSW 09:44:42 61° NNW 09:57:08 10° NE daylight
28 Jul - 11:53:38 10° WNW 12:02:18 25° NNW 12:14:52 10° NNE daylight
28 Jul - 14:14:38 10° NW 14:24:38 17° N 14:36:10 10° NE daylight
28 Jul - 16:34:27 10° NNW 16:49:18 24° NNE 17:02:57 10° ENE daylight
28 Jul - 18:52:06 10° NW 19:10:51 49° NNE 19:23:36 10° E visible
28 Jul - 21:11:23 10° WNW 21:28:14 71° SW 21:37:48 10° SE visible
28 Jul - 23:35:59 10° WSW 23:42:30 17° SW 23:47:22 10° S visible
29 Jul - 06:30:26 10° SSE 06:32:08 11° SE 06:34:02 10° ESE daylight
29 Jul - 08:39:01 10° SW 08:44:51 90° SE 08:55:21 10° NE daylight
29 Jul - 10:53:09 10° W 11:00:47 30° NNW 11:12:47 10° NE daylight
29 Jul - 13:12:36 10° NW 13:21:17 17° N 13:32:04 10° NNE daylight
29 Jul - 15:32:52 10° NNW 15:45:39 21° NNE 15:58:47 10° NE daylight
29 Jul - 17:50:17 10° NW 18:08:30 39° NNE 18:22:35 10° E daylight
29 Jul - 20:08:32 10° NW 20:27:27 85° NE 20:38:43 10° ESE visible
29 Jul - 22:30:53 10° W 22:42:40 31° SW 22:50:10 10° SSE visible
30 Jul - 07:40:38 10° SW 07:45:32 51° SE 07:53:36 10° ENE daylight
30 Jul - 09:53:18 10° W 09:59:57 38° NNW 10:11:05 10° NE daylight
30 Jul - 12:11:01 10° NW 12:18:39 18° N 12:28:46 10° NNE daylight
30 Jul - 14:31:27 10° NNW 14:41:53 18° N 14:53:35 10° NE daylight
30 Jul - 16:48:49 10° NNW 17:05:38 31° NNE 17:20:29 10° E daylight
30 Jul - 19:06:10 10° NW 19:25:59 67° NNE 19:39:01 10° ESE visible
30 Jul - 21:26:44 10° WNW 21:42:34 49° SW 21:52:00 10° SSE visible
31 Jul - 06:42:47 10° SSW 06:46:33 24° SE 06:51:41 10° E daylight
31 Jul - 08:54:00 10° WSW 08:59:44 52° NNW 09:09:41 10° NE daylight
31 Jul - 11:09:58 10° WNW 11:16:46 20° NNW 11:26:20 10° NNE daylight
31 Jul - 13:30:10 10° NNW 13:38:22 16° N 13:48:05 10° NE daylight
31 Jul - 15:47:43 10° NNW 16:02:22 25° NNE 16:17:01 10° ENE daylight
31 Jul - 18:04:16 10° NW 18:23:56 53° NNE 18:38:36 10° ESE visible
31 Jul - 20:23:17 10° WNW 20:41:58 70° SW 20:53:15 10° SE visible
31 Jul - 22:48:21 10° W 22:57:10 20° SW 23:03:30 10° S visible
01 Aug - 07:55:08 10° WSW 08:00:05 82° NNW 08:08:30 10° NE daylight
01 Aug - 10:09:33 10° WNW 10:15:36 24° NNW 10:24:37 10° NNE daylight
01 Aug - 12:28:57 10° NNW 12:35:23 14° N 12:43:16 10° NNE daylight
01 Aug - 14:46:57 10° NNW 14:58:54 20° NNE 15:12:05 10° ENE daylight
01 Aug - 17:02:52 10° NW 17:21:22 42° NNE 17:37:12 10° E daylight
01 Aug - 19:20:30 10° NW 19:40:44 89° NE 19:53:55 10° SE visible
01 Aug - 21:43:00 10° W 21:56:54 33° SW 22:05:53 10° SSE visible
02 Aug - 06:56:40 10° SW 07:00:56 52° SE 07:07:24 10° ENE daylight
02 Aug - 09:09:40 10° W 09:15:02 29° NNW 09:23:28 10° NNE daylight
02 Aug - 11:27:49 10° NW 11:33:08 14° N 11:39:47 10° NNE daylight
02 Aug - 13:46:32 10° NNW 13:55:29 16° NNE 14:05:56 10° NE daylight
02 Aug - 16:01:58 10° NNW 16:18:28 33° NNE 16:34:36 10° E daylight
02 Aug - 18:18:23 10° NW 18:38:54 71° NE 18:53:57 10° ESE visible
02 Aug - 20:38:42 10° WNW 20:56:19 50° SW 21:07:26 10° SE visible
02 Aug - 23:07:52 10° SW 23:12:08 12° SW 23:15:44 10° SSW visible
03 Aug - 05:58:42 10° SSW 06:02:02 23° SE 06:06:09 10° E daylight
03 Aug - 08:10:15 10° W 08:15:02 41° NNW 08:22:43 10° NE daylight
03 Aug - 10:26:52 10° NW 10:31:36 15° NNW 10:37:42 10° NNE daylight
03 Aug - 12:46:26 10° NNW 12:52:23 13° N 12:59:21 10° NNE daylight
03 Aug - 15:01:31 10° NNW 15:15:24 26° NNE 15:30:32 10° ENE daylight
03 Aug - 17:16:53 10° NW 17:36:36 56° NNE 17:53:09 10° ESE daylight
03 Aug - 19:35:19 10° WNW 19:55:13 69° SW 20:08:25 10° SE visible
03 Aug - 22:00:26 10° W 22:11:32 22° SW 22:19:23 10° S visible
04 Aug - 07:11:15 10° WSW 07:15:34 69° NNW 07:22:12 10° NE daylight
04 Aug - 09:26:19 10° WNW 09:30:43 17° NNW 09:36:39 10° NNE daylight
04 Aug - 11:46:37 10° NNW 11:49:50 11° N 11:53:26 10° NNE daylight
04 Aug - 14:01:35 10° NNW 14:12:17 19° NNE 14:24:50 10° ENE daylight
04 Aug - 16:15:59 10° NW 16:33:59 44° NNE 16:51:19 10° E daylight
04 Aug - 18:32:47 10° NW 18:53:33 89° SW 19:08:46 10° SE visible
04 Aug - 20:55:00 10° W 21:10:45 35° SW 21:21:21 10° SSE visible
05 Aug - 06:12:36 10° SW 06:16:32 56° SE 06:21:47 10° ENE daylight
05 Aug - 08:26:13 10° WNW 08:30:23 22° NNW 08:36:16 10° NNE daylight
05 Aug - 10:47:01 10° N 10:47:56 10° N 10:48:53 10° N daylight
05 Aug - 13:02:14 10° NNW 13:09:20 14° NNE 13:17:43 10° NE daylight
05 Aug - 15:15:38 10° NNW 15:31:14 34° NNE 15:48:11 10° E daylight
05 Aug - 17:31:02 10° NW 17:51:26 73° NE 18:08:26 10° ESE daylight
05 Aug - 19:50:46 10° WNW 20:09:37 51° SW 20:22:35 10° SE visible
05 Aug - 22:19:27 10° WSW 22:26:39 15° SSW 22:32:23 10° S visible
